Find Starlink 32580

NORAD ID: 62075 Int'l Des: 2024-217 Owner: SPXS Country: US Constellation: starlink operational
LEOCIRCULAR

リアルタイム位置

3D地球を読み込み中...

Starlink 32580について

説明を読み込み中...

次回通過

Passes for default location (London). Set your location on the main map for personalized predictions.

高度履歴

Loading altitude history...

軌道要素

1 62075U 24217U 26107.12623727 .00006184 00000-0 22072-3 0 9997
2 62075 53.1603 2.7583 0001229 87.3584 272.7557 15.30201246 79481
Epoch: Apr 17, 2026 • Age: 15 hours

現在のステータス

高度 483.0 km
速度 7.62 km/s
衛星直下点 -25.22°S, 83.61°E
打ち上げ日 Nov 24, 2024
運用期間 1.3 years
タイプ internet

技術仕様

分類 Payload
質量 730.00 kg
乾燥質量 700.00 kg
総質量 730.00 kg
長さ 0.30 m
直径 4.10 m
スパン 29.00 m
形状 Box + pan
製造者 SPXS
バスタイプ Starlink V2M
フェーズステータス In Orbit
所有者/国 SPXS/US

Most Searched